Location: Newark
(33.9439°N, 86.0617°W)
Time: 16:40:22
(UTC+00:00)

Envisat - Visible Passes

Search period start: 19 January 2020 00:00
Search period end: 29 January 2020 00:00
Orbit: 764 x 766 km, 98.1° (Epoch: 19 January)

Date Brightness Start Highest point End Pass type
(mag) Time Alt. Az. Time Alt. Az. Time Alt. Az.
19 Jan 6.3 01:10:20 10° WSW 01:11:53 11° W 01:13:25 10° WNW visible
19 Jan 5.1 11:40:43 10° NE 11:45:10 30° E 11:49:35 10° SSE visible
20 Jan 5.1 00:30:30 10° SSW 00:34:49 28° W 00:39:10 10° NW visible
20 Jan 6.3 11:06:03 10° ENE 11:08:07 12° E 11:10:10 10° ESE visible
20 Jan 3.4 23:52:54 10° S 23:57:57 69° W 00:03:00 10° NNW visible
21 Jan 3.8 12:05:43 10° NNE 12:10:43 57° E 12:15:42 10° S visible
22 Jan 6.1 00:57:36 10° SW 01:00:29 15° W 01:03:22 10° WNW visible
22 Jan 5.6 11:29:47 10° NE 11:33:49 23° E 11:37:49 10° SSE visible
23 Jan 4.7 00:18:50 10° SSW 00:23:29 36° W 00:28:09 10° NNW visible
23 Jan 3.0 23:41:35 10° SSE 23:46:39 88° W 23:51:45 10° NNW visible
24 Jan 4.4 11:54:34 10° NNE 11:59:25 43° E 12:04:13 10° S visible
25 Jan 5.7 00:45:28 10° SW 00:49:07 20° W 00:52:45 10° NW visible
25 Jan 6.0 11:19:00 10° NE 11:22:26 18° E 11:25:52 10° SE visible
26 Jan 4.1 00:07:17 10° S 00:12:09 47° W 00:17:03 10° NNW visible
26 Jan 3.0 23:30:21 10° SSE 23:35:23 72° ENE 23:40:27 10° N visible
27 Jan 4.9 11:43:30 10° NNE 11:48:05 33° E 11:52:38 10° SSE visible
28 Jan 5.3 00:33:34 10° SSW 00:37:44 25° W 00:41:55 10° NW visible
28 Jan 6.2 11:08:30 10° ENE 11:11:03 14° E 11:13:35 10° ESE visible
